Regional Weather Roundup
Issued by NWS

Home | Current Version | Previous Version | Graphics & Text | Print | Product List | Glossary On
Versions: 1 2 3 4 5 6 7 8 9 10 11 12 13 14 15 16 17 18 19 20 21 22 23 24 25 26 27
000
ASUS45 KCYS 211610
RWRWY

WYOMING REGIONAL WEATHER ROUNDUP
NATIONAL WEATHER SERVICE CHEYENNE WY
900 AM MST SUN JAN 21 2018

NOTE:  "FAIR" INDICATES FEW OR NO CLOUDS BELOW 12,000 FEET
WITH NO SIGNIFICANT WEATHER AND/OR OBSTRUCTIONS TO VISIBILITY.

WYZ001-211700-
YELLOWSTONE NATIONAL PARK

CITY           SKY/WX    TMP DP  RH WIND       PRES   REMARKS
LK YELLOWSTONE   N/A    -11 -15  82 CALM      30.05R
W YELLOWSTONE  NOT AVBL

$$
WYZ002>013-054>058-071-098>099-211700-
NORTHERN WYOMING

CITY           SKY/WX    TMP DP  RH WIND       PRES   REMARKS
JACKSON        FAIR       7   1  76 E7        30.06R WCI  -5
CODY           FAIR      22  13  68 SW3       30.05R
GREYBULL       FAIR      17  15  92 CALM      30.07R
WORLAND        CLOUDY    19  17  92 CALM      30.06R
SHERIDAN       FAIR      27  18  69 N5        30.05R WCI  22
BUFFALO        CLOUDY    28  14  55 NW14      30.01R WCI  17
GILLETTE       PTSUNNY   22  17  81 CALM      30.01R
HULETT         PTSUNNY   27  23  86 CALM      30.01R
NEWCASTLE      FAIR      27  21  80 NW6       29.99R WCI  20

$$
WYZ014>020-022>026-101>103-211700-
CENTRAL WYOMING

CITY           SKY/WX    TMP DP  RH WIND       PRES   REMARKS
BIG PINEY      PTSUNNY   14   7  73 E5        29.96R WCI   6
PINEDALE       PTSUNNY   10   5  79 NW5       29.97R WCI   2
DUBOIS         PTSUNNY   14  10  85 NW6       29.96R WCI   5
LANDER         CLOUDY    22  18  85 W5        30.00R WCI  16
RIVERTON       CLOUDY    22  17  81 W9        30.00R WCI  12
CASPER         SNOW      21  20  96 N6        29.98R VSB 1/2 WCI  13
DOUGLAS        LGT SNOW  24  22  91 NW12      29.98R FOG     WCI  13

$$
WYZ021-027>030-104>119-211700-
SOUTHERN WYOMING

CITY           SKY/WX    TMP DP  RH WIND       PRES   REMARKS
EVANSTON       CLOUDY    14  11  87 W10       30.00R WCI   1
FORT BRIDGER   LGT SNOW  17  15  93 W17G25    30.00R WCI   1
ROCK SPRINGS   SNOW      17  14  88 W9        29.97R VSB 1/4 WCI   6
DIXON          LGT SNOW  21  15  78 NE25G37   29.85R WCI   4
RAWLINS        LGT SNOW  19  14  81 N18       29.89R WCI   4
SARATOGA       CLOUDY    19  19 100 N12       29.85R WCI   7
LARAMIE        LGT SNOW  17  13  84 N12       29.81R FOG     WCI   4
CHEYENNE       SNOW      20  19  96 N16       29.84R VSB 1/2 WCI   6
TORRINGTON     CLOUDY    27  24  89 N16       29.92R WCI  15

$$




USA.gov is the U.S. government's official web portal to all federal, state and local government web resources and services.